Dewpoint
34 35 35 35 36 36 34 33 30 31 31 32 35 40 40 37 37 36 35 34 34 36 33 30 28 26 25 26 25 24 23 21 21 22 21 21 22 21 21 21 21 22 22 23
28 34 33 33 34 34 34 34 33 33 33 34 35 39 38 37 36 35 35 34 36 35 31 26 25 25 24 25 25 24 22 21 21 21 20 22 20 20 20 20 20 21 22 21
29 33 29 28 29 31 30 33 33 31 32 33 36 38 38 37 36 35 34 34 34 32 29 24 23 24 23 25 25 23 21 20 21 20 19 21 18 18 19 20 20 20 21 20
31 31 23 30 31 32 31 32 32 32 32 32 34 36 36 36 35 34 34 33 32 31 27 23 23 24 25 26 24 22 20 20 19 18 19 19 17 18 19 19 19 20 20 19
31 26 29 28 28 30 29 28 30 31 32 32 31 31 31 32 34 34 33 33 32 30 26 22 21 23 25 24 22 20 18 18 18 19 19 18 17 18 19 19 19 19 18 18
30 25 24 26 30 34 31 26 32 33 32 31 30 29 32 32 33 33 33 32 30 26 21 20 20 23 22 20 19 17 19 19 18 19 19 17 18 19 19 19 18 18 17 18
29 31 32 32 32 32 24 26 34 34 33 32 30 34 32 34 33 33 33 31 27 22 19 17 19 21 18 17 16 17 20 19 19 18 17 17 18 18 19 18 18 19 18 20
32 30 28 34 34 29 31 34 35 34 33 33 33 34 33 33 32 32 28 27 22 19 17 16 17 17 15 15 16 17 17 17 17 17 16 16 18 18 18 18 18 19 19 19
31 31 34 36 34 36 35 35 36 35 34 34 34 34 34 32 31 28 25 24 19 17 15 14 16 15 14 14 16 16 14 14 15 16 17 14 16 17 18 18 18 18 18 18
32 34 36 37 37 37 39 38 37 37 35 35 34 34 34 32 31 25 17 16 14 13 13 13 15 15 14 15 16 15 13 12 15 15 18 15 15 17 18 18 17 17 18 16
31 34 35 36 37 37 36 39 39 38 36 35 35 35 34 33 31 27 19 10 11 12 12 13 15 16 16 16 16 13 11 12 14 16 14 15 14 17 19 19 18 18 17 18
31 35 35 35 35 38 39 39 40 38 37 36 36 35 35 34 33 29 22 10 9 12 14 15 16 16 17 17 14 12 9 12 16 17 16 15 15 16 18 18 17 17 17 18
34 36 37 38 38 35 38 38 39 40 38 37 37 36 36 35 34 32 24 13 11 13 15 16 16 16 16 16 15 12 13 16 17 17 15 15 15 15 11 14 15 15 15 16
37 35 33 34 33 35 37 38 40 39 39 39 38 37 36 36 32 28 22 17 13 15 17 16 16 16 16 17 15 17 17 16 16 13 9 11 9 13 12 11 11 12 14 14
35 35 34 33 34 34 34 34 35 35 36 36 37 36 35 33 31 29 23 15 14 17 17 16 16 17 17 16 15 17 17 11 13 13 13 14 15 14 13 13 12 11 11 12
31 32 33 34 34 33 33 32 33 33 34 34 34 34 35 34 32 23 18 17 17 16 17 18 17 17 16 14 14 16 16 14 13 13 14 14 14 12 13 13 11 10 10 9
33 31 30 32 33 33 32 32 31 33 34 33 34 34 33 28 22 20 18 18 18 19 18 18 19 16 15 15 16 15 14 14 10 13 14 14 13 13 13 12 11 10 10 10
31 32 33 32 31 31 31 31 31 32 33 34 34 31 27 25 26 22 18 20 20 21 19 20 20 18 16 17 16 15 13 10 11 13 14 14 13 14 13 11 10 10 9 9
29 30 32 31 32 32 31 31 32 32 33 33 31 30 29 28 26 20 20 20 20 20 21 19 20 16 14 15 16 15 11 9 11 13 14 12 12 12 11 11 10 10 9 8
30 30 31 31 32 32 32 33 33 32 32 32 30 27 25 23 21 20 20 19 20 22 20 18 17 14 14 15 16 11 8 9 10 12 11 11 11 10 11 9 9 9 6 5
31 32 31 31 31 31 31 30 28 30 28 30 28 28 24 18 20 20 19 18 20 21 18 17 15 14 13 13 7 8 8 8 9 11 10 9 6 9 9 8 7 6 4 4
29 29 28 26 29 29 26 29 30 26 23 22 20 20 19 19 19 18 18 21 22 18 18 17 17 14 12 9 6 9 9 10 11 10 8 4 6 7 6 7 6 6 5 2
31 31 31 29 29 31 27 25 18 21 19 18 19 20 21 21 20 19 19 19 18 18 18 18 15 11 6 8 9 9 9 9 8 8 5 2 6 6 6 7 7 7 3 2
33 32 32 30 28 28 28 24 23 22 15 18 16 18 20 20 21 20 20 18 18 19 18 15 12 7 4 7 8 6 5 5 3 1 4 4 7 6 6 5 5 6 3 2
32 32 30 28 28 28 25 23 21 21 20 20 21 20 21 22 24 20 20 19 19 17 15 10 7 4 7 8 6 4 2 2 2 -2 3 7 7 6 5 5 4 3 2 2
31 31 29 29 28 26 24 22 22 21 20 20 21 23 23 22 20 20 19 17 16 14 13 6 6 7 8 7 3 1 1 4 4 4 8 9 9 9 7 7 5 4 2 2
29 26 26 25 25 24 23 22 22 21 21 20 22 23 21 21 18 16 14 15 13 10 8 8 9 7 5 3 2 3 3 4 4 10 11 11 9 6 7 6 5 4 3 0
Lifted_Index
2 2 2 2 2 2 2 2 2 2 2 2 1 1 1 1 1 1 1 1 2 2 3 5 7 8 9 11 13 15 17 18 18 19 19 19 19 20 20 21 21 21 22 22
3 3 3 3 3 2 3 3 3 3 3 3 2 2 1 1 1 1 1 1 2 2 3 5 7 8 9 10 12 15 17 18 18 19 19 19 19 19 20 20 21 21 21 21
3 3 3 3 3 3 3 4 4 4 4 3 3 3 2 2 2 2 2 2 2 3 4 6 8 9 9 10 13 15 17 18 18 19 19 19 19 19 20 20 21 21 21 21
4 3 3 3 3 4 4 4 5 5 4 4 4 3 3 3 3 2 2 3 3 5 6 7 8 9 10 11 13 15 17 18 18 19 19 19 19 20 20 20 21 21 21 21
4 3 3 3 4 4 5 4 5 5 4 4 4 4 3 3 3 3 3 4 5 6 7 8 9 9 10 11 13 16 17 18 19 19 19 19 19 20 20 21 21 21 21 21
4 3 4 4 4 4 5 4 4 5 4 4 3 3 3 3 3 4 5 6 6 7 7 8 9 10 10 11 14 16 18 18 19 19 19 20 20 20 21 21 21 21 21 21
4 4 4 4 4 4 5 5 5 4 4 4 3 3 4 4 4 5 6 7 7 7 7 8 9 10 10 12 15 17 18 19 19 20 20 20 20 21 21 21 21 21 21 21
4 4 4 5 5 5 5 5 5 5 4 4 3 4 4 4 5 6 6 6 7 7 7 8 9 10 11 13 16 18 19 19 19 20 20 21 21 21 21 21 21 21 21 21
4 4 4 5 5 5 5 5 5 4 4 4 4 4 4 4 5 5 5 5 6 7 7 8 9 10 12 14 17 18 19 19 19 20 20 20 21 21 21 21 21 21 21 21
5 5 4 4 4 5 4 4 4 4 4 4 4 3 3 4 4 4 4 4 6 7 7 8 9 11 13 16 17 18 18 19 19 19 20 20 20 21 21 21 21 21 21 21
5 4 4 4 4 4 4 4 3 3 3 3 3 3 3 3 3 3 3 4 5 6 7 8 9 12 14 16 18 18 18 18 19 19 19 20 20 21 21 22 22 22 22 22
4 4 4 4 3 3 3 3 3 3 3 3 3 2 2 2 2 2 3 4 5 6 7 8 9 12 14 16 18 18 18 18 19 19 19 19 19 20 21 22 23 23 23 23
4 4 3 3 3 3 3 3 3 3 3 3 2 2 2 2 2 2 2 3 5 6 7 8 9 11 14 16 18 18 18 19 19 19 19 19 19 19 20 21 22 23 23 23
4 3 3 3 3 3 3 3 3 3 4 4 4 3 2 2 2 2 2 3 5 6 7 8 9 11 14 16 18 18 19 19 19 19 19 20 20 20 20 20 21 21 22 22
4 3 3 3 3 4 4 4 5 5 5 6 5 5 4 3 2 2 2 3 4 5 6 7 9 12 14 17 18 18 19 19 20 20 20 20 20 20 21 21 21 21 21 22
5 4 4 4 4 4 5 5 5 6 7 7 6 6 5 4 3 2 2 3 4 4 6 7 9 12 15 17 18 19 19 19 20 20 20 20 20 20 21 21 21 21 21 21
6 6 5 5 5 5 6 6 6 7 7 7 7 6 6 5 4 3 3 3 4 5 6 8 10 13 16 17 18 19 19 19 20 20 20 20 20 20 21 21 21 21 21 22
6 6 6 6 6 6 6 7 7 7 7 7 7 6 6 5 5 4 4 4 4 5 7 9 12 14 16 18 19 19 19 19 19 20 20 20 20 21 21 21 21 21 21 22
6 7 7 7 7 7 7 7 7 7 7 7 7 6 6 6 6 6 5 5 5 6 8 10 12 15 17 18 19 19 19 19 19 20 20 20 20 21 21 21 21 21 21 22
6 6 7 7 7 7 7 6 6 6 6 7 6 6 6 6 6 6 6 6 6 7 9 11 13 15 17 19 19 19 19 19 19 20 20 20 20 21 21 21 21 21 21 21
6 6 6 7 7 6 6 6 6 6 6 7 7 7 6 6 6 6 6 7 8 9 11 13 15 16 18 19 19 19 19 19 20 20 20 20 20 20 21 21 21 21 21 21
6 5 5 5 5 5 5 5 6 6 6 7 7 7 7 7 6 6 7 7 9 10 12 14 16 17 18 19 19 19 19 20 20 20 20 20 20 20 20 20 20 20 21 21
4 4 4 4 4 4 5 6 6 7 7 7 6 6 6 6 6 6 7 8 10 12 13 15 17 18 19 19 19 19 19 20 20 20 20 20 20 20 20 20 20 20 20 20
3 3 2 2 3 4 5 6 7 7 7 6 6 5 6 6 6 7 8 9 11 13 14 16 18 18 18 19 19 19 20 20 20 20 20 20 20 20 20 20 20 20 20 20
2 2 2 2 3 4 5 6 6 6 6 6 6 6 6 7 7 8 9 10 12 14 16 17 18 18 18 19 19 19 20 20 20 20 20 20 20 20 20 20 20 20 20 20
1 1 2 3 4 4 5 5 5 5 6 6 6 6 7 8 9 9 10 11 13 15 17 18 18 18 18 19 19 20 20 20 20 20 20 20 20 20 20 19 19 19 19 20
1 1 2 3 4 4 5 5 5 5 6 7 7 7 7 8 9 9 10 12 15 17 18 18 18 18 19 19 19 20 20 20 20 20 20 20 20 20 19 19 19 19 19 19